Eveleth, MN

3:26 AM CST on February 25, 2017 (GMT -0600)
Eveleth-Virginia Municipal

Weather History for KEVM - March, 2013

Change the Weather History Date:

Friday, March 15, 2013

  Actual Average Record
Temperature  
Mean Temperature 22 °F -  
Max Temperature 32 °F 33 °F 62 °F (2015)
Min Temperature 12 °F 11 °F -11 °F (1997)
Degree Days  
Heating Degree Days 43    
Moisture  
Dew Point 11 °F    
Average Humidity 65    
Maximum Humidity 83    
Minimum Humidity 33    
Precipitation  
Precipitation 0.00 in - - ()
Sea Level Pressure  
Sea Level Pressure 29.98 in    
Wind  
Wind Speed 9 mph (NNE)    
Max Wind Speed 14 mph    
Max Gust Speed 17 mph    
Visibility 8 miles    
Events Snow    
Averages and records for this station are not official NWS values.
T = Trace of Precipitation, MM = Missing Value Source: NWS Daily Summary

Daily Weather History Graph

Daily Weather History Graph

Search for Another Location

Airport or City:

Trip Planner

Search our weather history database for the weather conditions in past years. The results will help you decide how hot, cold, wet, or windy it might be!

Date:

Astronomy

Mar. 15, 2013 Rise Set
Actual Time 7:22 AM CDT 7:15 PM CDT
Civil Twilight 6:51 AM CDT 7:46 PM CDT
Nautical Twilight 6:16 AM CDT 8:22 PM CDT
Astronomical Twilight 5:39 AM CDT 8:59 PM CDT
Moon 8:55 AM CDT (3/15) 11:50 PM CDT (3/15)
Length of Visible Light 12h 54m
Length of Day
11h 53m
Waxing Crescent, 15% of the Moon is Illuminated
Mar 15
Waxing Crescent
Mar 19
First Quarter
Mar 27
Full
Apr 2
Last Quarter
Apr 10
New

Hourly Weather History & Observations

Time (CDT) Temp. Windchill Dew Point Humidity Pressure Visibility Wind Dir Wind Speed Gust Speed Precip Events Conditions
12:09 AM 32.5 °F 25.5 °F 27.7 °F 82% 29.95 in 10.0 mi NNE 8.1 mph - N/A   Overcast
12:29 AM 32.2 °F 25.8 °F 27.1 °F 82% 29.95 in 10.0 mi North 6.9 mph - N/A   Overcast
12:50 AM 32.2 °F 25.0 °F 26.6 °F 80% 29.95 in 10.0 mi North 8.1 mph - N/A   Overcast
1:09 AM 32.2 °F 26.7 °F 26.4 °F 79% 29.95 in 10.0 mi North 5.8 mph - N/A   Overcast
1:29 AM 32.2 °F 25.0 °F 26.6 °F 80% 29.95 in 10.0 mi North 8.1 mph - N/A   Overcast
1:50 AM 32.2 °F 24.4 °F 26.6 °F 80% 29.95 in 10.0 mi North 9.2 mph - N/A   Overcast
2:09 AM 31.5 °F 21.8 °F 25.9 °F 80% 29.96 in 10.0 mi NNE 12.7 mph 17.3 mph N/A   Overcast
2:29 AM 30.0 °F 21.7 °F 24.6 °F 80% 29.97 in 10.0 mi North 9.2 mph - N/A   Overcast
2:50 AM 28.2 °F 20.2 °F 22.1 °F 78% 29.97 in 10.0 mi North 8.1 mph - N/A   Overcast
3:09 AM 27.5 °F 19.3 °F 20.8 °F 76% 29.97 in 10.0 mi North 8.1 mph - N/A   Overcast
3:29 AM 27.5 °F 19.3 °F 20.3 °F 74% 29.97 in 10.0 mi North 8.1 mph - N/A   Overcast
4:09 AM 27.5 °F 21.1 °F 19.9 °F 73% 29.97 in 10.0 mi North 5.8 mph - N/A   Overcast
4:30 AM 26.2 °F 17.8 °F 18.9 °F 74% 29.97 in 10.0 mi NNE 8.1 mph - N/A   Overcast
4:49 AM 25.9 °F 17.4 °F 18.3 °F 73% 29.97 in 10.0 mi NNE 8.1 mph - N/A   Overcast
5:10 AM 25.7 °F 18.0 °F 17.8 °F 72% 29.98 in 10.0 mi North 6.9 mph - N/A   Overcast
5:29 AM 24.8 °F 16.9 °F 16.7 °F 71% 29.99 in 10.0 mi North 6.9 mph - N/A   Overcast
5:49 AM 24.3 °F 14.6 °F 16.7 °F 73% 29.99 in 10.0 mi NNE 9.2 mph - N/A   Overcast
6:10 AM 23.7 °F 15.6 °F 16.7 °F 75% 30.00 in 10.0 mi North 6.9 mph - N/A   Mostly Cloudy
6:29 AM 23.0 °F 13.9 °F 16.7 °F 77% 30.00 in 10.0 mi NNE 8.1 mph - N/A   Overcast
6:49 AM 22.5 °F 13.2 °F 16.3 °F 77% 30.00 in 10.0 mi NNE 8.1 mph - N/A   Overcast
7:10 AM 22.5 °F 11.7 °F 15.4 °F 74% 30.01 in 10.0 mi NNE 10.4 mph 17.3 mph N/A   Overcast
7:29 AM 20.3 °F 10.6 °F 13.3 °F 74% 30.01 in 10.0 mi NNE 8.1 mph - N/A   Mostly Cloudy
7:49 AM 19.9 °F 7.9 °F 11.8 °F 71% 30.02 in 10.0 mi NNE 11.5 mph - N/A   Mostly Cloudy
8:10 AM 19.9 °F 8.6 °F 12.0 °F 71% 30.03 in 10.0 mi NNE 10.4 mph - N/A   Overcast
8:29 AM 18.5 °F 6.8 °F 10.9 °F 72% 30.02 in 10.0 mi NNE 10.4 mph - N/A   Overcast
8:49 AM 18.3 °F 5.9 °F 10.4 °F 71% 30.02 in 10.0 mi NNE 11.5 mph - N/A   Mostly Cloudy
9:10 AM 18.0 °F 5.4 °F 10.0 °F 71% 30.02 in 10.0 mi NNE 11.5 mph - N/A   Scattered Clouds
9:29 AM 18.3 °F 5.9 °F 8.6 °F 66% 30.02 in 10.0 mi NE 11.5 mph - N/A   Scattered Clouds
9:49 AM 18.5 °F 6.1 °F 7.7 °F 63% 30.01 in 10.0 mi NE 11.5 mph - N/A   Scattered Clouds
10:10 AM 18.3 °F 5.9 °F 8.1 °F 64% 30.01 in 10.0 mi NE 11.5 mph - N/A   Mostly Cloudy
10:29 AM 19.9 °F 6.7 °F 9.0 °F 62% 30.00 in 10.0 mi NNE 13.8 mph - N/A   Mostly Cloudy
10:49 AM 19.9 °F 9.3 °F 8.1 °F 60% 30.00 in 10.0 mi NE 9.2 mph 12.7 mph N/A   Overcast
11:10 AM 19.9 °F 9.3 °F 7.2 °F 58% 30.01 in 10.0 mi NE 9.2 mph - N/A   Overcast
11:29 AM 19.9 °F 7.9 °F 5.9 °F 55% 30.02 in 10.0 mi NE 11.5 mph - N/A   Overcast
11:49 AM 20.1 °F 10.3 °F 5.9 °F 54% 30.01 in 10.0 mi NNE 8.1 mph - N/A   Overcast
12:10 PM 22.5 °F 11.7 °F 6.3 °F 50% 30.01 in 10.0 mi NE 10.4 mph - N/A   Overcast
12:29 PM 22.5 °F 13.2 °F 5.7 °F 49% 30.00 in 10.0 mi NNE 8.1 mph - N/A   Mostly Cloudy
12:50 PM 22.5 °F 15.1 °F 5.5 °F 48% 30.00 in 10.0 mi ENE 5.8 mph - N/A   Mostly Cloudy
1:09 PM 22.6 °F 14.3 °F 5.2 °F 47% 29.99 in 10.0 mi NNE 6.9 mph - N/A   Mostly Cloudy
1:30 PM 24.3 °F 17.3 °F 4.8 °F 43% 29.99 in 10.0 mi NE 5.8 mph - N/A   Overcast
1:49 PM 24.8 °F 15.3 °F 3.6 °F 40% 29.98 in 10.0 mi NNE 9.2 mph - N/A   Overcast
2:10 PM 25.0 °F 17.1 °F 0.5 °F 35% 29.97 in 10.0 mi ENE 6.9 mph - N/A   Mostly Cloudy
2:29 PM 24.8 °F 15.3 °F 1.0 °F 36% 29.96 in 10.0 mi NE 9.2 mph - N/A   Mostly Cloudy
2:49 PM 24.1 °F 13.7 °F -0.0 °F 35% 29.95 in 10.0 mi NNE 10.4 mph - N/A   Overcast
3:10 PM 23.7 °F 15.6 °F -0.2 °F 35% 29.95 in 10.0 mi NE 6.9 mph - N/A   Mostly Cloudy
3:29 PM 23.7 °F 14.7 °F 0.7 °F 37% 29.95 in 10.0 mi NNE 8.1 mph - N/A   Mostly Cloudy
3:49 PM 23.7 °F 14.0 °F -0.4 °F 35% 29.94 in 10.0 mi NNE 9.2 mph - N/A   Overcast
4:10 PM 23.7 °F 14.0 °F 0.1 °F 36% 29.94 in 10.0 mi NNE 9.2 mph - N/A   Overcast
4:30 PM 23.7 °F 15.6 °F -0.8 °F 35% 29.94 in 10.0 mi NE 6.9 mph - N/A   Overcast
4:49 PM 23.7 °F 14.7 °F -0.9 °F 34% 29.94 in 10.0 mi NNE 8.1 mph - N/A   Overcast
5:10 PM 23.7 °F 14.0 °F -1.3 °F 34% 29.93 in 10.0 mi NE 9.2 mph - N/A   Overcast
5:30 PM 23.7 °F 12.6 °F -2.0 °F 33% 29.93 in 10.0 mi NE 11.5 mph - N/A   Overcast
5:49 PM 22.5 °F 13.2 °F 0.3 °F 38% 29.94 in 10.0 mi NE 8.1 mph - N/A   Overcast
6:10 PM 22.5 °F 14.1 °F 4.8 °F 47% 29.96 in 10.0 mi NNE 6.9 mph - N/A   Overcast
6:30 PM 21.6 °F 12.1 °F 8.4 °F 57% 29.96 in 7.0 mi NE 8.1 mph - N/A   Overcast
6:49 PM 19.9 °F 9.3 °F 8.6 °F 61% 29.96 in 3.0 mi NNE 9.2 mph - N/A Snow Light Snow
7:09 PM 18.5 °F 6.8 °F 11.1 °F 73% 29.96 in 2.0 mi NNE 10.4 mph - N/A Snow Light Snow
7:30 PM 17.4 °F 6.2 °F 11.8 °F 79% 29.97 in 2.0 mi NE 9.2 mph - N/A Snow Light Snow
7:49 PM 17.4 °F 6.2 °F 12.2 °F 80% 29.96 in 2.5 mi NE 9.2 mph - N/A Snow Light Snow
8:09 PM 17.4 °F 7.1 °F 12.7 °F 82% 29.97 in 2.5 mi NNE 8.1 mph - N/A Snow Light Snow
8:29 PM 17.4 °F 6.2 °F 12.7 °F 82% 29.97 in 2.5 mi NNE 9.2 mph - N/A Snow Light Snow
8:49 PM 17.4 °F 6.2 °F 12.7 °F 82% 29.98 in 2.5 mi NE 9.2 mph - N/A Snow Light Snow
9:10 PM 15.8 °F 4.2 °F 11.1 °F 82% 29.98 in 2.0 mi NE 9.2 mph - N/A Snow Light Snow
9:29 PM 14.9 °F 2.3 °F 10.4 °F 82% 29.98 in 2.5 mi NE 10.4 mph - N/A Snow Light Snow
9:50 PM 14.9 °F 3.1 °F 10.2 °F 82% 29.98 in 2.5 mi NE 9.2 mph - N/A Snow Light Snow
10:09 PM 14.9 °F 4.0 °F 10.2 °F 82% 29.98 in 3.0 mi NE 8.1 mph - N/A Snow Light Snow
10:29 PM 14.9 °F 5.0 °F 10.4 °F 82% 29.99 in 2.0 mi NE 6.9 mph - N/A Snow Light Snow
10:50 PM 14.9 °F 1.6 °F 10.4 °F 82% 29.99 in 2.0 mi NE 11.5 mph - N/A Snow Light Snow
11:09 PM 13.6 °F 0.7 °F 9.3 °F 83% 30.00 in 2.0 mi NNE 10.4 mph - N/A Snow Light Snow
11:29 PM 12.9 °F -0.2 °F 8.4 °F 82% 29.99 in 2.5 mi NE 10.4 mph - N/A Snow Light Snow
11:50 PM 12.2 °F 0.7 °F 7.7 °F 82% 29.99 in 2.5 mi NNE 8.1 mph - N/A Snow Light Snow